Historique des stations

Station météo de Digny

Altitude de la station : 230 m







Données météorologiques pour le 16/09/2021
Date
Heure
Températures Humidité Point de rosée Vitesse
du vent
Direction Rafales Windchill Pression Pluviométrie
Cumul
Date
Heure
Températures Humidité Point de rosée Vitesse
du vent
Direction Rafales Windchill Pression Pluviométrie
Cumul
16/09/2021 12:5718.2 °C77 %13.9 °C8 km/hN16 km/h18.3 1018 hPa-
16/09/2021 12:4117.9 °C76 %13.9 °C6 km/hNNO16 km/h17.8 1018 hPa-
16/09/2021 12:2617.7 °C77 %13.9 °C6 km/hNNO16 km/h17.8 1018 hPa-
16/09/2021 12:1117.8 °C80 %14.4 °C8 km/hNNO16 km/h17.8 1018 hPa-
16/09/2021 11:5518.1 °C79 %14.4 °C10 km/hN16 km/h18.3 1018 hPa-
16/09/2021 11:4017.6 °C82 %14.4 °C11 km/hNNO16 km/h17.2 1018 hPa-
16/09/2021 11:2417.4 °C85 %15.0 °C10 km/hN16 km/h17.2 1018 hPa-
16/09/2021 11:0816.7 °C89 %15.0 °C8 km/hN14 km/h16.7 1018 hPa-
16/09/2021 10:5316.1 °C94 %15.0 °C8 km/hNNO14 km/h16.1 1018 hPa-
16/09/2021 10:3815.1 °C99 %15.0 °C6 km/hN14 km/h15.0 1018 hPa-
16/09/2021 10:2214.4 °C99 %14.4 °C5 km/hN14 km/h14.4 1018 hPa-
16/09/2021 10:0714.1 °C99 %13.9 °C3 km/hNO14 km/h13.9 1018 hPa-
16/09/2021 09:5113.7 °C99 %13.3 °C5 km/hN14 km/h13.9 1018 hPa-
16/09/2021 09:3613.5 °C99 %13.3 °C5 km/hN14 km/h13.3 1018 hPa-
16/09/2021 09:2113.2 °C99 %13.3 °C8 km/hN14 km/h12.8 1018 hPa-
16/09/2021 09:0513.1 °C99 %12.8 °C8 km/hN14 km/h12.8 1018 hPa-
16/09/2021 08:5012.9 °C98 %12.8 °C6 km/hNO14 km/h12.8 1018 hPa-
16/09/2021 08:3512.8 °C98 %12.8 °C5 km/hNNO14 km/h12.8 1018 hPa-
16/09/2021 08:1912.7 °C98 %12.2 °C5 km/hNO14 km/h12.8 1017 hPa-
16/09/2021 08:0412.7 °C98 %12.2 °C6 km/hNO14 km/h12.8 1017 hPa-
16/09/2021 07:4912.5 °C98 %12.2 °C5 km/hONO14 km/h12.8 1017 hPa-
16/09/2021 07:3312.3 °C98 %12.2 °C5 km/hONO14 km/h12.2 1017 hPa-
16/09/2021 07:1812.1 °C98 %11.7 °C5 km/hONO14 km/h12.2 1017 hPa-
16/09/2021 07:0212.0 °C98 %11.7 °C6 km/hONO14 km/h12.2 1017 hPa-
16/09/2021 06:5311.9 °C98 %11.7 °C5 km/hONO14 km/h11.7 1017 hPa-
16/09/2021 06:3711.7 °C98 %11.7 °C6 km/hONO14 km/h11.7 1017 hPa-
16/09/2021 06:3311.6 °C98 %11.1 °C6 km/hO14 km/h11.7 1017 hPa-
16/09/2021 06:1811.4 °C97 %11.1 °C5 km/hO14 km/h11.7 1017 hPa-
16/09/2021 06:0211.4 °C97 %11.1 °C6 km/hO14 km/h11.7 1017 hPa-
16/09/2021 05:4711.6 °C97 %11.1 °C6 km/hO14 km/h11.7 1017 hPa-
16/09/2021 05:3211.7 °C97 %11.1 °C6 km/hO14 km/h11.7 1017 hPa-
16/09/2021 05:1611.7 °C97 %11.1 °C5 km/hO14 km/h11.7 1017 hPa-
16/09/2021 05:0111.8 °C97 %11.7 °C6 km/hO14 km/h11.7 1017 hPa-
16/09/2021 04:4612.2 °C97 %11.7 °C6 km/hONO14 km/h12.2 1017 hPa-
16/09/2021 04:3012.3 °C97 %11.7 °C6 km/hONO14 km/h12.2 1017 hPa-
16/09/2021 04:1512.2 °C96 %11.7 °C5 km/hO14 km/h12.2 1017 hPa-
16/09/2021 03:5912.1 °C96 %11.7 °C6 km/hONO14 km/h12.2 1017 hPa-
16/09/2021 03:4412.1 °C96 %11.7 °C5 km/hONO14 km/h12.2 1017 hPa-
16/09/2021 03:2912.3 °C95 %11.7 °C3 km/hNO14 km/h12.2 1017 hPa-
16/09/2021 03:1312.7 °C93 %11.7 °C5 km/hNO14 km/h12.8 1016 hPa-
16/09/2021 02:5813.4 °C94 %12.2 °C5 km/hNO14 km/h13.3 1016 hPa-
16/09/2021 02:4313.7 °C93 %12.8 °C3 km/hNO14 km/h13.9 1016 hPa-
16/09/2021 02:2714.2 °C93 %13.3 °C2 km/hNO14 km/h14.4 1016 hPa-
16/09/2021 02:1214.6 °C93 %13.3 °C3 km/hNO14 km/h14.4 1016 hPa-
16/09/2021 01:5614.8 °C93 %13.9 °C3 km/hNO14 km/h15.0 1016 hPa-
16/09/2021 01:4014.9 °C92 %13.9 °C5 km/hNO14 km/h15.0 1016 hPa-
16/09/2021 01:2515.1 °C92 %13.9 °C6 km/hNO14 km/h15.0 1016 hPa-
16/09/2021 01:1015.3 °C92 %13.9 °C8 km/hNO14 km/h15.6 1016 hPa-
16/09/2021 00:5415.7 °C91 %14.4 °C8 km/hNO14 km/h15.6 1016 hPa-
16/09/2021 00:3915.9 °C91 %14.4 °C11 km/hONO14 km/h15.6 1016 hPa-
16/09/2021 00:2416.1 °C92 %15.0 °C11 km/hONO14 km/h15.6 1016 hPa-
16/09/2021 00:0816.2 °C93 %15.0 °C8 km/hNO14 km/h16.1 1016 hPa-


Minima :

Température : 11.4 °C
Humidité : 76 %
Point de rosée : 11.1 °C
Vent moyen : 2 km/h
Windchill : 11.7
Pression atm. : 1016 hPa
Maxima :

Température : 18.2 °C
Humidité : 99 %
Point de rosée : 15.0 °C
Vent moyen : 11 km/h
Windchill : 18.3
Pression atm. : 1018 hPa
Rafales max : 16 km/h
Cumul de pluie sur 24H : 0 mm

Digny est une commune du département Eure-et-Loir (28).
La station météorologique du réseau de l'association la plus proche de Digny est celle de Le Mesnil-Thomas



Icône Facebook Association Météo Centre Icône Twitter Association Météo Centre Icône Chaîne Youtube Association Météo Centre Icône contact Association Météo Centre Icône Insta Association Météo Centre